TimeEDT,TemperatureF,Dew PointF,Humidity,Sea Level PressureIn,VisibilityMPH,Wind Direction,Wind SpeedMPH,Gust SpeedMPH,PrecipitationIn,Events,Conditions,WindDirDegrees,DateUTC
12:53 AM,82.9,72.0,69,30.01,10.0,WSW,10.4,-,N/A,,Mostly Cloudy,250,2013-07-26 04:53:00
1:53 AM,82.0,73.0,74,30.00,10.0,WSW,8.1,-,N/A,,Overcast,250,2013-07-26 05:53:00
2:53 AM,81.0,73.0,77,29.98,10.0,WSW,5.8,-,N/A,,Scattered Clouds,240,2013-07-26 06:53:00
3:53 AM,80.1,72.0,76,29.97,10.0,SW,6.9,-,N/A,,Partly Cloudy,230,2013-07-26 07:53:00
4:53 AM,81.0,72.0,74,29.99,10.0,WSW,6.9,-,N/A,,Scattered Clouds,250,2013-07-26 08:53:00
5:53 AM,80.1,72.0,76,29.98,10.0,SW,10.4,-,N/A,,Overcast,230,2013-07-26 09:53:00
6:53 AM,81.0,72.0,74,30.00,10.0,SW,10.4,-,N/A,,Overcast,230,2013-07-26 10:53:00
7:53 AM,82.0,72.0,71,30.01,10.0,West,6.9,-,N/A,,Mostly Cloudy,260,2013-07-26 11:53:00
8:53 AM,82.0,72.0,71,30.02,10.0,West,6.9,-,N/A,,Mostly Cloudy,270,2013-07-26 12:53:00
9:53 AM,82.9,73.0,72,30.00,10.0,WSW,10.4,-,N/A,,Overcast,240,2013-07-26 13:53:00
10:53 AM,84.0,71.1,65,30.01,10.0,WSW,12.7,-,N/A,,Mostly Cloudy,250,2013-07-26 14:53:00
11:53 AM,84.9,73.0,67,30.01,10.0,WSW,9.2,-,N/A,,Mostly Cloudy,250,2013-07-26 15:53:00
12:53 PM,89.1,73.0,59,29.99,10.0,West,10.4,18.4,N/A,,Mostly Cloudy,270,2013-07-26 16:53:00
1:53 PM,91.0,71.1,52,29.99,10.0,WSW,15.0,-,N/A,,Mostly Cloudy,240,2013-07-26 17:53:00
2:53 PM,91.0,72.0,53,29.97,10.0,WNW,10.4,18.4,N/A,,Mostly Cloudy,300,2013-07-26 18:53:00
3:53 PM,88.0,72.0,59,29.96,10.0,West,12.7,19.6,0.00,Rain,Light Rain,260,2013-07-26 19:53:00
4:53 PM,91.0,69.1,48,29.94,10.0,WNW,11.5,-,0.00,,Mostly Cloudy,290,2013-07-26 20:53:00
5:53 PM,90.0,69.1,50,29.95,10.0,WNW,9.2,-,N/A,,Mostly Cloudy,290,2013-07-26 21:53:00
6:53 PM,88.0,73.0,61,29.96,10.0,ENE,15.0,-,N/A,,Mostly Cloudy,60,2013-07-26 22:53:00
6:59 PM,86.0,73.4,66,29.97,10.0,NE,16.1,-,N/A,,Mostly Cloudy,40,2013-07-26 22:59:00
7:53 PM,84.0,73.0,69,29.98,10.0,East,8.1,-,N/A,,Mostly Cloudy,90,2013-07-26 23:53:00
8:53 PM,84.0,72.0,67,29.98,10.0,SSW,8.1,-,N/A,,Mostly Cloudy,210,2013-07-27 00:53:00
9:53 PM,82.0,73.0,74,29.99,10.0,SW,5.8,-,N/A,,Mostly Cloudy,230,2013-07-27 01:53:00
10:53 PM,82.0,73.0,74,29.99,10.0,SW,4.6,-,N/A,,Scattered Clouds,220,2013-07-27 02:53:00
11:53 PM,81.0,73.0,77,30.00,10.0,SSW,4.6,-,N/A,,Scattered Clouds,210,2013-07-27 03:53:00